VU3IZK-13 Weather Reports


time (UTC)temp
F
wind
direction
speed
knots
gust
knots
rain 1hr
in
rain 24hr
in
rain mn
in
humidity
%
barometer
mb
20260505040015 82 56 4.3 8.7 0.03 5.63 5.62 71
20260505034537 81 309 7.0 8.7 0.03 5.63 5.62 72
20260505033017 81 49 2.6 9.6 0.17 5.61 5.60 74
20260505031516 80 176 9.6 9.6 0.13 5.56 5.55 77
20260505030036 78 19 2.6 7.0 0.12 5.55 5.54 77
20260505024536 77 228 5.2 5.2 0.00 5.43 5.42 81
20260505023014 76 202 0.9 6.1 0.04 5.43 5.42 83
20260505021514 75 217 3.5 4.3 0.04 5.43 5.42 85
20260505020039 74 105 0.0 3.5 0.04 5.43 5.42 86
20260505014538 74 226 0.9 2.6 0.04 5.43 5.42 87
20260505013017 73 27 0.9 3.5 0.02 5.40 5.39 89
20260505011518 73 59 1.7 2.6 0.02 5.40 5.38 89
20260505010040 73 296 1.7 3.5 0.02 5.40 5.38 89
20260505004541 72 221 2.6 2.6 0.02 5.40 5.38 89
20260505003019 72 20 0.9 3.5 0.02 5.49 5.48 89
20260505001519 72 256 0.0 4.3 0.02 5.49 5.36 88
20260505000043 72 195 0.9 3.5 0.02 5.49 5.36 88
20260504234543 72 357 0.9 3.5 0.02 5.49 5.36 88
20260504233021 72 315 0.0 3.5 0.26 5.50 5.37 87
20260504231519 73 289 2.6 6.1 0.25 5.49 5.33 86
20260504230040 73 216 0.0 6.1 0.23 5.48 5.31 86
20260504224521 73 211 3.5 7.0 0.15 5.40 5.23 85
20260504223021 73 269 3.5 4.3 0.03 5.25 5.08 85
20260504221521 73 347 0.9 5.2 0.03 5.25 5.08 85
20260504220043 73 271 1.7 6.1 0.03 5.25 5.08 84
20260504214523 72 160 0.9 3.5 0.01 5.23 5.06 86
20260504213024 72 275 0.0 4.3 3.39 5.22 5.05 86
20260504211502 72 29 1.7 4.3 2.64 4.47 4.30 85
20260504210003 72 296 1.7 4.3 1.13 2.96 2.79 86
20260504204525 72 242 0.0 2.6 0.14 1.97 1.80 85
20260504203026 72 6 0.9 3.5 1.52 1.87 1.70 86
20260504201505 72 24 3.5 4.3 0.85 1.16 0.99 87
20260504200005 72 317 0.9 3.5 0.46 0.77 0.61 87
20260504194529 72 62 0.0 2.6 0.21 0.52 0.36 86
20260504193029 72 157 0.0 2.6 0.15 0.32 0.15 84
20260504191508 73 352 0.0 4.3 0.02 0.19 0.02 82
20260504190005 73 211 0.9 4.3 0.01 0.18 0.01 80
20260504184526 74 243 0.9 5.2 0.01 0.18 0.01 79
20260504183007 74 205 1.7 4.3 0.00 0.17 0.00 77
20260504181552 74 152 1.7 6.1 0.00 0.16 0.16 78
20260504174530 74 161 3.5 4.3 0.00 0.16 0.16 77
20260504173008 74 186 0.0 2.6 0.00 0.16 0.16 80
20260504171531 74 180 1.7 5.2 0.00 0.16 0.16 78
20260504081503 92 113 13.9 17.4 0.00 0.16 0.16 39
20260504050008 84 276 5.2 13.0 0.00 0.16 0.16 61
20260504044527 83 231 7.0 14.8 0.00 0.16 0.16 59
20260504043004 83 217 6.1 13.0 0.00 0.16 0.16 58
20260504041545 83 246 7.8 13.0 0.00 0.16 0.16 58